When you browse on this site, cookies collect data to enhance your experience and personalize the content and advertising you see.
Visit our Privacy Policy to learn more. By continuing to use the site, you agree to this use of cookies and data.
  • In Portugal
  • List of Countries
  • For 7 days
  • Water Temperature
  • Satellite Maps
  • Weather Map
  • Weather Widgets
  • user-avatar
    Login

    Hourly Weather Kerns

    Today, 20 July, Saturday

    Time Temperature Precipitation Wind Pressure Humidity
    00:00 +13°C° 0 mm 3 mps 763 mmHg 82%
    01:00 +12°C° 0 mm 3 mps 762 mmHg 81%
    02:00 +12°C° 0 mm 3 mps 762 mmHg 82%
    03:00 +12°C° 0 mm 3 mps 762 mmHg 82%
    04:00 +12°C° 0 mm 3 mps 762 mmHg 83%
    05:00 +12°C° 0 mm 3 mps 762 mmHg 84%
    06:00 +12°C° 0 mm 3 mps 763 mmHg 85%
    07:00 +12°C° 0 mm 3 mps 763 mmHg 85%
    08:00 +16°C° 0 mm 3 mps 763 mmHg 75%
    09:00 +19°C° 0 mm 4 mps 763 mmHg 65%
    10:00 +22°C° 0 mm 4 mps 763 mmHg 54%
    11:00 +23°C° 0 mm 4 mps 763 mmHg 52%
    12:00 +25°C° 0 mm 5 mps 762 mmHg 49%
    13:00 +26°C° 0 mm 5 mps 762 mmHg 47%
    14:00 +26°C° 0 mm 5 mps 762 mmHg 50%
    15:00 +25°C° 0 mm 5 mps 761 mmHg 53%
    16:00 +25°C° 0 mm 4 mps 761 mmHg 56%
    17:00 +22°C° 0 mm 4 mps 761 mmHg 68%
    18:00 +19°C° 0 mm 4 mps 762 mmHg 79%
    19:00 +17°C° 0 mm 3 mps 762 mmHg 91%
    20:00 +17°C° 0 mm 3 mps 762 mmHg 92%
    21:00 +16°C° 0 mm 3 mps 762 mmHg 94%
    22:00 +16°C° 0 mm 3 mps 762 mmHg 95%
    23:00 +16°C° 0 mm 3 mps 762 mmHg 96%

    Tomorrow, 21 July, Sunday

    Time Temperature Precipitation Wind Pressure Humidity
    00:00 +16°C° 0 mm 3 mps 762 mmHg 96%
    01:00 +14°C° 0 mm 3 mps 762 mmHg 96%
    02:00 +14°C° 0 mm 3 mps 762 mmHg 96%
    03:00 +14°C° 0 mm 3 mps 761 mmHg 96%
    04:00 +14°C° 0 mm 3 mps 761 mmHg 95%
    05:00 +14°C° 0 mm 3 mps 761 mmHg 95%
    06:00 +14°C° 0 mm 3 mps 762 mmHg 95%
    07:00 +14°C° 0 mm 3 mps 762 mmHg 95%
    08:00 +18°C° 0 mm 3 mps 762 mmHg 82%
    09:00 +21°C° 0 mm 4 mps 762 mmHg 69%
    10:00 +25°C° 0 mm 4 mps 762 mmHg 56%
    11:00 +26°C° 0 mm 4 mps 761 mmHg 53%
    12:00 +27°C° 0 mm 4 mps 761 mmHg 49%
    13:00 +28°C° 0 mm 5 mps 760 mmHg 45%
    14:00 +27°C° 0 mm 4 mps 759 mmHg 50%
    15:00 +26°C° 0 mm 4 mps 759 mmHg 54%
    16:00 +25°C° 0 mm 4 mps 758 mmHg 59%
    17:00 +22°C° 0 mm 4 mps 759 mmHg 70%
    18:00 +20°C° 0 mm 4 mps 759 mmHg 82%
    19:00 +18°C° 0 mm 3 mps 760 mmHg 93%
    20:00 +18°C° 0 mm 3 mps 760 mmHg 94%
    21:00 +17°C° 0 mm 3 mps 761 mmHg 95%
    22:00 +17°C° 0 mm 3 mps 761 mmHg 97%
    23:00 +17°C° 0 mm 3 mps 761 mmHg 97%

    Day after tomorrow, 22 July, Monday

    Time Temperature Precipitation Wind Pressure Humidity
    00:00 +16°C° 0 mm 3 mps 760 mmHg 97%
    01:00 +16°C° 0 mm 3 mps 760 mmHg 97%
    02:00 +16°C° 0 mm 3 mps 760 mmHg 97%
    03:00 +16°C° 0 mm 3 mps 760 mmHg 96%
    04:00 +15°C° 0 mm 2 mps 760 mmHg 96%
    05:00 +15°C° 0 mm 2 mps 760 mmHg 95%
    06:00 +15°C° 0 mm 2 mps 760 mmHg 95%
    07:00 +15°C° 0 mm 2 mps 761 mmHg 94%
    08:00 +19°C° 0 mm 3 mps 761 mmHg 80%
    09:00 +22°C° 0 mm 3 mps 761 mmHg 66%
    10:00 +27°C° 0 mm 3 mps 761 mmHg 51%
    11:00 +28°C° 0 mm 4 mps 760 mmHg 48%
    12:00 +29°C° 0 mm 4 mps 760 mmHg 44%
    13:00 +30°C° 0 mm 5 mps 759 mmHg 41%
    14:00 +29°C° 0 mm 5 mps 759 mmHg 46%
    15:00 +29°C° 0 mm 5 mps 759 mmHg 51%
    16:00 +28°C° 0 mm 6 mps 758 mmHg 57%
    17:00 +26°C° 0 mm 5 mps 759 mmHg 69%
    18:00 +22°C° 0 mm 5 mps 759 mmHg 81%
    19:00 +20°C° 0 mm 5 mps 760 mmHg 93%
    20:00 +20°C° 0 mm 5 mps 760 mmHg 94%
    21:00 +20°C° 0 mm 5 mps 760 mmHg 95%
    22:00 +19°C° 0 mm 5 mps 761 mmHg 96%
    23:00 +19°C° 0 mm 4 mps 761 mmHg 96%

    23 July, Tuesday

    Time Temperature Precipitation Wind Pressure Humidity
    00:00 +19°C° 0 mm 4 mps 761 mmHg 96%
    01:00 +19°C° 0 mm 4 mps 760 mmHg 97%
    02:00 +20°C° 0.1 mm 4 mps 760 mmHg 97%
    03:00 +20°C° 0.1 mm 4 mps 760 mmHg 97%
    04:00 +20°C° 0.1 mm 4 mps 760 mmHg 98%
    05:00 +20°C° 0.1 mm 4 mps 760 mmHg 97%
    06:00 +20°C° 0.1 mm 4 mps 761 mmHg 97%
    07:00 +20°C° 0.1 mm 4 mps 761 mmHg 96%
    08:00 +21°C° 0.2 mm 5 mps 762 mmHg 93%
    09:00 +22°C° 0.2 mm 5 mps 762 mmHg 90%
    10:00 +23°C° 0.2 mm 5 mps 762 mmHg 87%
    11:00 +23°C° 0.2 mm 5 mps 762 mmHg 85%
    12:00 +25°C° 0.2 mm 5 mps 761 mmHg 83%
    13:00 +25°C° 0.2 mm 5 mps 761 mmHg 80%
    14:00 +25°C° 0.2 mm 5 mps 761 mmHg 83%
    15:00 +23°C° 0.2 mm 5 mps 761 mmHg 85%
    16:00 +23°C° 0.2 mm 5 mps 761 mmHg 87%
    17:00 +22°C° 0.1 mm 5 mps 761 mmHg 89%
    18:00 +21°C° 0.1 mm 5 mps 761 mmHg 92%
    19:00 +21°C° 0.1 mm 5 mps 762 mmHg 95%
    20:00 +21°C° 0.1 mm 5 mps 762 mmHg 95%
    21:00 +20°C° 0.1 mm 5 mps 763 mmHg 96%
    22:00 +20°C° 0.1 mm 5 mps 763 mmHg 96%
    23:00 +20°C° 0.2 mm 4 mps 763 mmHg 96%

    24 July, Wednesday

    Time Temperature Precipitation Wind Pressure Humidity
    00:00 +20°C° 0.2 mm 4 mps 763 mmHg 96%
    01:00 +20°C° 0.2 mm 4 mps 762 mmHg 97%
    02:00 +20°C° 0.3 mm 4 mps 762 mmHg 97%
    03:00 +20°C° 0.3 mm 4 mps 762 mmHg 97%
    04:00 +20°C° 0.3 mm 4 mps 762 mmHg 98%
    05:00 +20°C° 0.3 mm 4 mps 762 mmHg 97%
    06:00 +20°C° 0.3 mm 5 mps 762 mmHg 97%
    07:00 +20°C° 0.3 mm 5 mps 763 mmHg 97%
    08:00 +21°C° 0.2 mm 5 mps 763 mmHg 91%
    09:00 +22°C° 0.2 mm 6 mps 764 mmHg 85%
    10:00 +23°C° 0.2 mm 6 mps 764 mmHg 78%
    11:00 +24°C° 0.2 mm 6 mps 764 mmHg 74%
    12:00 +24°C° 0.2 mm 6 mps 763 mmHg 71%
    13:00 +24°C° 0.2 mm 6 mps 763 mmHg 67%
    14:00 +24°C° 0 mm 6 mps 762 mmHg 65%
    15:00 +24°C° 0 mm 6 mps 762 mmHg 64%
    16:00 +24°C° 0 mm 6 mps 762 mmHg 63%
    17:00 +22°C° 0 mm 6 mps 762 mmHg 70%
    18:00 +20°C° 0 mm 5 mps 762 mmHg 78%
    19:00 +19°C° 0 mm 5 mps 763 mmHg 85%
    20:00 +17°C° 0 mm 5 mps 763 mmHg 88%
    21:00 +16°C° 0 mm 5 mps 764 mmHg 90%
    22:00 +17°C° 0 mm 4 mps 764 mmHg 92%
    23:00 +15°C° 0 mm 4 mps 764 mmHg 93%

    25 July, Thursday

    Time Temperature Precipitation Wind Pressure Humidity
    00:00 +15°C° 0 mm 4 mps 763 mmHg 93%
    01:00 +15°C° 0 mm 4 mps 763 mmHg 94%
    02:00 +15°C° 0.1 mm 4 mps 762 mmHg 95%
    03:00 +15°C° 0.1 mm 4 mps 762 mmHg 95%
    04:00 +15°C° 0.1 mm 4 mps 762 mmHg 96%
    05:00 +15°C° 0 mm 4 mps 762 mmHg 96%
    06:00 +15°C° 0 mm 4 mps 763 mmHg 96%
    07:00 +15°C° 0 mm 4 mps 763 mmHg 96%
    08:00 +19°C° 0 mm 5 mps 763 mmHg 85%
    09:00 +21°C° 0 mm 5 mps 763 mmHg 73%
    10:00 +25°C° 0 mm 5 mps 763 mmHg 62%
    11:00 +26°C° 0 mm 5 mps 763 mmHg 61%
    12:00 +26°C° 0 mm 6 mps 762 mmHg 60%
    13:00 +27°C° 0 mm 6 mps 762 mmHg 60%
    14:00 +26°C° 0.1 mm 6 mps 761 mmHg 63%
    15:00 +26°C° 0.1 mm 6 mps 761 mmHg 66%
    16:00 +24°C° 0.1 mm 6 mps 761 mmHg 69%
    17:00 +22°C° 0 mm 6 mps 761 mmHg 76%
    18:00 +21°C° 0 mm 5 mps 762 mmHg 83%
    19:00 +19°C° 0 mm 5 mps 762 mmHg 90%
    20:00 +19°C° 0 mm 5 mps 763 mmHg 91%
    21:00 +17°C° 0 mm 5 mps 763 mmHg 92%
    22:00 +17°C° 0 mm 5 mps 763 mmHg 94%
    23:00 +17°C° 0 mm 4 mps 763 mmHg 94%
    Show more